,,Stat5,,Stat1,,Stat2,,Stat3,,Stat4,,Wind1,,Wind1,
time,status,PA1M_AVG,status,PR1M_SUM,status,RH1M_AVG,status,SR1M_AVG,status,TA1M_AVG,status,W1dAve1m,status,W1sAve1m,
2002-05-03, 00:00:00,VALID,914.281,VALID,0,VALID,82.8132,VALID,0.0509425,VALID,22.7377,VALID,45,VALID,2.57689,
2002-05-03, 00:01:00,VALID,914.287,VALID,0,VALID,83.046,VALID,0.0509425,VALID,22.7286,VALID,75,VALID,1.50741,
2002-05-03, 00:02:00,VALID,914.298,VALID,0,VALID,83.1693,VALID,0.101885,VALID,22.6965,VALID,65,VALID,1.52529,
2002-05-03, 00:03:00,VALID,914.32,VALID,0,VALID,82.9023,VALID,0.0509425,VALID,22.6836,VALID,66,VALID,2.14412,
2002-05-03, 00:04:00,VALID,914.333,VALID,0,VALID,82.9951,VALID,0.0679233,VALID,22.6927,VALID,65,VALID,1.51875,
2002-05-03, 00:05:00,VALID,914.29,VALID,0,VALID,83.0841,VALID,0.0169808,VALID,22.6736,VALID,36,VALID,3.36011,
2002-05-03, 00:06:00,VALID,914.273,VALID,0,VALID,82.723,VALID,0.0509425,VALID,22.6903,VALID,67,VALID,2.45587,
2002-05-03, 00:07:00,VALID,914.283,VALID,0,VALID,82.5081,VALID,0.0339617,VALID,22.748,VALID,39,VALID,2.33361,
2002-05-03, 00:08:00,VALID,914.262,VALID,0,VALID,82.4458,VALID,0,VALID,22.7647,VALID,46,VALID,3.42208,
2002-05-03, 00:09:00,VALID,914.229,VALID,0,VALID,82.6759,VALID,0,VALID,22.7685,VALID,51,VALID,2.64663,
2002-05-03, 00:10:00,VALID,914.252,VALID,0,VALID,82.6848,VALID,-0.0339617,VALID,22.7265,VALID,78,VALID,3.14648,
2002-05-03, 00:11:00,VALID,914.22,VALID,0,VALID,82.8069,VALID,0,VALID,22.7133,VALID,33,VALID,3.18549,
2002-05-03, 00:12:00,VALID,914.195,VALID,0,VALID,82.7967,VALID,0,VALID,22.71,VALID,57,VALID,3.18154,
2002-05-03, 00:13:00,VALID,914.195,VALID,0,VALID,82.578,VALID,-0.0339617,VALID,22.7103,VALID,74,VALID,4.2859,
2002-05-03, 00:14:00,VALID,914.116,VALID,0,VALID,82.4928,VALID,0,VALID,22.755,VALID,73,VALID,2.55566,
2002-05-03, 00:15:00,VALID,914.144,VALID,0,VALID,82.6619,VALID,-0.0509425,VALID,22.775,VALID,60,VALID,1.59725,
2002-05-03, 00:16:00,VALID,914.108,VALID,0,VALID,82.6899,VALID,0,VALID,22.7456,VALID,44,VALID,3.08251,
2002-05-03, 00:17:00,VALID,914.062,VALID,0,VALID,82.7713,VALID,0.0169808,VALID,22.7297,VALID,42,VALID,3.57592,
2002-05-03, 00:18:00,VALID,914.044,VALID,0,VALID,82.7153,VALID,0,VALID,22.7268,VALID,65,VALID,2.57665,
2002-05-03, 00:19:00,VALID,914.044,VALID,0,VALID,82.4318,VALID,-0.0169808,VALID,22.7685,VALID,49,VALID,2.48849,
2002-05-03, 00:20:00,VALID,914.01,VALID,0,VALID,82.3936,VALID,-0.0169808,VALID,22.7817,VALID,44,VALID,1.98438,
2002-05-03, 00:21:00,VALID,914.007,VALID,0,VALID,82.5755,VALID,-0.0339617,VALID,22.7685,VALID,62,VALID,1.39361,
2002-05-03, 00:22:00,VALID,914.021,VALID,0,VALID,82.4953,VALID,-0.0339617,VALID,22.7462,VALID,54,VALID,2.28049,
2002-05-03, 00:23:00,VALID,914.007,VALID,0,VALID,82.3237,VALID,-0.0509425,VALID,22.7462,VALID,75,VALID,2.00501,
2002-05-03, 00:24:00,VALID,914.007,VALID,0,VALID,82.2474,VALID,-0.0679233,VALID,22.73,VALID,43,VALID,2.48718,
2002-05-03, 00:25:00,VALID,913.983,VALID,0,VALID,82.3656,VALID,0.0169808,VALID,22.7556,VALID,70,VALID,1.84416,
2002-05-03, 00:26:00,VALID,914.002,VALID,0,VALID,82.1177,VALID,-0.0169808,VALID,22.7591,VALID,79,VALID,2.88029,
2002-05-03, 00:27:00,VALID,913.963,VALID,0,VALID,82.4165,VALID,-0.0509425,VALID,22.7491,VALID,39,VALID,1.68273,
2002-05-03, 00:28:00,VALID,913.973,VALID,0,VALID,82.4318,VALID,0,VALID,22.7265,VALID,55,VALID,2.56581,
2002-05-03, 00:29:00,VALID,913.983,VALID,0,VALID,82.7433,VALID,0.0169808,VALID,22.6968,VALID,52,VALID,1.51014,
2002-05-03, 00:30:00,VALID,914.013,VALID,0,VALID,82.4674,VALID,-0.0169808,VALID,22.6686,VALID,64,VALID,2.82123,
2002-05-03, 00:31:00,VALID,914.016,VALID,0,VALID,82.3351,VALID,0,VALID,22.7071,VALID,65,VALID,2.52956,
2002-05-03, 00:32:00,VALID,914.055,VALID,0,VALID,82.325,VALID,-0.0339617,VALID,22.7109,VALID,69,VALID,1.89515,
2002-05-03, 00:33:00,VALID,914.094,VALID,0,VALID,82.489,VALID,-0.0169808,VALID,22.7135,VALID,79,VALID,1.93586,
2002-05-03, 00:34:00,VALID,914.108,VALID,0,VALID,82.6187,VALID,-0.0679233,VALID,22.6944,VALID,51,VALID,1.97991,
2002-05-03, 00:35:00,VALID,914.101,VALID,0,VALID,82.6187,VALID,-0.0169808,VALID,22.6815,VALID,42,VALID,2.50866,
2002-05-03, 00:36:00,VALID,914.118,VALID,0,VALID,82.7865,VALID,-0.0339617,VALID,22.6783,VALID,63,VALID,1.68015,
2002-05-03, 00:37:00,VALID,914.123,VALID,0,VALID,83.0116,VALID,-0.0169808,VALID,22.6527,VALID,65,VALID,2.16892,
2002-05-03, 00:38:00,VALID,914.091,VALID,0,VALID,82.9023,VALID,0.0339617,VALID,22.6348,VALID,56,VALID,1.64453,
2002-05-03, 00:39:00,VALID,914.099,VALID,0,VALID,82.9684,VALID,0.0679233,VALID,22.6372,VALID,47,VALID,2.09756,
2002-05-03, 00:40:00,VALID,914.095,VALID,0,VALID,83.1502,VALID,0.0509425,VALID,22.6181,VALID,56,VALID,2.09821,
2002-05-03, 00:41:00,VALID,914.102,VALID,0,VALID,83.1261,VALID,0.101885,VALID,22.6022,VALID,86,VALID,2.57116,
2002-05-03, 00:42:00,VALID,914.122,VALID,0,VALID,83.2914,VALID,0.0849042,VALID,22.6051,VALID,67,VALID,2.27872,
2002-05-03, 00:43:00,VALID,914.15,VALID,0,VALID,83.3766,VALID,0.0679233,VALID,22.5761,VALID,74,VALID,2.09649,
2002-05-03, 00:44:00,VALID,914.159,VALID,0,VALID,83.1515,VALID,0.0509425,VALID,22.5925,VALID,68,VALID,3.0516,
2002-05-03, 00:45:00,VALID,914.157,VALID,0,VALID,83.1668,VALID,0.101885,VALID,22.6151,VALID,81,VALID,1.9375,
2002-05-03, 00:46:00,VALID,914.177,VALID,0,VALID,83.3689,VALID,0.0339617,VALID,22.5858,VALID,51,VALID,2.19129,
2002-05-03, 00:47:00,VALID,914.179,VALID,0,VALID,83.3346,VALID,0.0849042,VALID,22.5761,VALID,69,VALID,2.58467,
2002-05-03, 00:48:00,VALID,914.183,VALID,0,VALID,83.3422,VALID,0.0679233,VALID,22.5693,VALID,63,VALID,2.92762,
2002-05-03, 00:49:00,VALID,914.179,VALID,0,VALID,82.7052,VALID,0.101885,VALID,22.6407,VALID,70,VALID,3.18792,
2002-05-03, 00:50:00,VALID,914.168,VALID,0,VALID,82.6797,VALID,0.101885,VALID,22.7021,VALID,85,VALID,2.43115,
2002-05-03, 00:51:00,VALID,914.174,VALID,0,VALID,83.0421,VALID,0.0849042,VALID,22.686,VALID,78,VALID,1.98798,
2002-05-03, 00:52:00,VALID,914.166,VALID,0,VALID,83.4796,VALID,0.0679233,VALID,22.6248,VALID,68,VALID,1.5279,
2002-05-03, 00:53:00,VALID,914.159,VALID,0,VALID,83.8356,VALID,0.0169808,VALID,22.5613,VALID,85,VALID,2.1193,
2002-05-03, 00:54:00,VALID,914.148,VALID,0,VALID,84.0721,VALID,-0.0509425,VALID,22.4775,VALID,77,VALID,2.11604,
2002-05-03, 00:55:00,VALID,914.145,VALID,0,VALID,83.683,VALID,-0.0169808,VALID,22.4937,VALID,63,VALID,3.70228,
2002-05-03, 00:56:00,VALID,914.095,VALID,0,VALID,83.2939,VALID,-0.0169808,VALID,22.5683,VALID,48,VALID,2.89371,
2002-05-03, 00:57:00,VALID,914.07,VALID,0,VALID,83.1566,VALID,-0.0169808,VALID,22.6066,VALID,54,VALID,3.47965,
2002-05-03, 00:58:00,VALID,914.057,VALID,0,VALID,83.1744,VALID,-0.0339617,VALID,22.6395,VALID,62,VALID,2.28929,
2002-05-03, 00:59:00,VALID,914.045,VALID,0,VALID,83.2799,VALID,-0.0169808,VALID,22.616,VALID,69,VALID,2.21199,
2002-05-03, 01:00:00,VALID,914.055,VALID,0,VALID,82.8984,VALID,-0.0509425,VALID,22.626,VALID,72,VALID,3.0949,
2002-05-03, 01:01:00,VALID,914.066,VALID,0,VALID,82.7878,VALID,-0.0339617,VALID,22.6815,VALID,68,VALID,2.24134,
2002-05-03, 01:02:00,VALID,914.064,VALID,0,VALID,82.9073,VALID,-0.0339617,VALID,22.6715,VALID,79,VALID,2.47095,
2002-05-03, 01:03:00,VALID,914.076,VALID,0,VALID,83.2939,VALID,-0.0169808,VALID,22.6295,VALID,77,VALID,1.75861,
2002-05-03, 01:04:00,VALID,914.098,VALID,0,VALID,83.3549,VALID,-0.0339617,VALID,22.5813,VALID,75,VALID,2.47991,
2002-05-03, 01:05:00,VALID,914.099,VALID,0,VALID,83.5826,VALID,0,VALID,22.5681,VALID,63,VALID,1.11254,
2002-05-03, 01:06:00,VALID,914.093,VALID,0,VALID,83.7682,VALID,-0.0169808,VALID,22.526,VALID,79,VALID,1.41245,
2002-05-03, 01:07:00,VALID,914.091,VALID,0,VALID,83.8026,VALID,-0.0509425,VALID,22.4872,VALID,77,VALID,2.10642,
2002-05-03, 01:08:00,VALID,914.078,VALID,0,VALID,83.9284,VALID,-0.0169808,VALID,22.4805,VALID,87,VALID,1.58635,
2002-05-03, 01:09:00,VALID,914.05,VALID,0,VALID,83.9958,VALID,0,VALID,22.4602,VALID,98,VALID,1.39638,
2002-05-03, 01:10:00,VALID,914.018,VALID,0,VALID,84.1573,VALID,0.0339617,VALID,22.4506,VALID,97,VALID,1.35,
2002-05-03, 01:11:00,VALID,913.993,VALID,0,VALID,84.4345,VALID,0.0509425,VALID,22.4282,VALID,92,VALID,1.13345,
2002-05-03, 01:12:00,VALID,913.973,VALID,0,VALID,84.8275,VALID,0.0509425,VALID,22.3695,VALID,81,VALID,1.22128,
2002-05-03, 01:13:00,VALID,913.957,VALID,0,VALID,85.1937,VALID,0.0509425,VALID,22.2857,VALID,95,VALID,1.5891,
2002-05-03, 01:14:00,VALID,913.939,VALID,0,VALID,85.4747,VALID,0.0509425,VALID,22.2208,VALID,73,VALID,1.23315,
2002-05-03, 01:15:00,VALID,913.927,VALID,0,VALID,85.7049,VALID,0,VALID,22.1664,VALID,78,VALID,1.63782,
2002-05-03, 01:16:00,VALID,913.888,VALID,0,VALID,85.8626,VALID,0.0169808,VALID,22.1308,VALID,88,VALID,2.14308,
2002-05-03, 01:17:00,VALID,913.864,VALID,0,VALID,86.0825,VALID,0,VALID,22.1117,VALID,87,VALID,1.40857,
2002-05-03, 01:18:00,VALID,913.852,VALID,0,VALID,86.1347,VALID,0.0169808,VALID,22.0885,VALID,95,VALID,1.80331,
2002-05-03, 01:19:00,VALID,913.833,VALID,0,VALID,86.1271,VALID,0.0169808,VALID,22.0885,VALID,87,VALID,1.43666,
2002-05-03, 01:20:00,VALID,913.811,VALID,0,VALID,86.0698,VALID,0.0169808,VALID,22.0823,VALID,99,VALID,1.83183,
2002-05-03, 01:21:00,VALID,913.778,VALID,0,VALID,85.9032,VALID,0,VALID,22.0917,VALID,60,VALID,1.65604,
2002-05-03, 01:22:00,VALID,913.75,VALID,0,VALID,86.1143,VALID,0.0509425,VALID,22.0759,VALID,37,VALID,1.10402,
2002-05-03, 01:23:00,VALID,913.739,VALID,0,VALID,86.2199,VALID,0.0169808,VALID,22.0338,VALID,58,VALID,1.36233,
2002-05-03, 01:24:00,VALID,913.74,VALID,0,VALID,86.3254,VALID,0.0339617,VALID,22.0145,VALID,78,VALID,1.38764,
2002-05-03, 01:25:00,VALID,913.747,VALID,0,VALID,86.1881,VALID,0,VALID,22.0048,VALID,72,VALID,1.33953,
2002-05-03, 01:26:00,VALID,913.749,VALID,0,VALID,86.169,VALID,0,VALID,22.0153,VALID,57,VALID,1.76807,
2002-05-03, 01:27:00,VALID,913.743,VALID,0,VALID,86.1169,VALID,0,VALID,22.0053,VALID,45,VALID,1.54667,
2002-05-03, 01:28:00,VALID,913.718,VALID,0,VALID,86.0126,VALID,0.0339617,VALID,22.0215,VALID,65,VALID,1.2933,
2002-05-03, 01:29:00,VALID,913.704,VALID,0,VALID,85.9821,VALID,0.0169808,VALID,22.0301,VALID,59,VALID,1.40308,
2002-05-03, 01:30:00,VALID,913.696,VALID,0,VALID,86.1258,VALID,0,VALID,22.0112,VALID,40,VALID,1.07307,
2002-05-03, 01:31:00,VALID,913.696,VALID,0,VALID,86.0673,VALID,0,VALID,22.0018,VALID,61,VALID,1.71622,
2002-05-03, 01:32:00,VALID,913.71,VALID,0,VALID,85.9834,VALID,0,VALID,22.0045,VALID,56,VALID,1.522,
2002-05-03, 01:33:00,VALID,913.721,VALID,0,VALID,85.86,VALID,0.0169808,VALID,22.0309,VALID,33,VALID,1.35773,
2002-05-03, 01:34:00,VALID,913.717,VALID,0,VALID,85.7328,VALID,0,VALID,22.0503,VALID,37,VALID,1.8654,
2002-05-03, 01:35:00,VALID,913.713,VALID,0,VALID,85.5459,VALID,0.0169808,VALID,22.0891,VALID,47,VALID,1.77407,
2002-05-03, 01:36:00,VALID,913.717,VALID,0,VALID,85.551,VALID,0.0169808,VALID,22.0823,VALID,55,VALID,1.5756,
2002-05-03, 01:37:00,VALID,913.702,VALID,0,VALID,85.6934,VALID,0.0509425,VALID,22.0729,VALID,28,VALID,1.1079,
2002-05-03, 01:38:00,VALID,913.672,VALID,0,VALID,85.2547,VALID,0.0509425,VALID,22.0732,VALID,65,VALID,2.13257,
2002-05-03, 01:39:00,VALID,913.652,VALID,0,VALID,84.994,VALID,0.0169808,VALID,22.1699,VALID,39,VALID,1.65264,
2002-05-03, 01:40:00,VALID,913.658,VALID,0,VALID,85.1237,VALID,0.0509425,VALID,22.1537,VALID,67,VALID,1.20134,
2002-05-03, 01:41:00,VALID,913.629,VALID,0,VALID,85.2382,VALID,0.0509425,VALID,22.1308,VALID,46,VALID,1.2046,
2002-05-03, 01:42:00,VALID,913.595,VALID,0,VALID,85.284,VALID,0.0339617,VALID,22.1111,VALID,45,VALID,1.29205,
2002-05-03, 01:43:00,VALID,913.555,VALID,0,VALID,85.2509,VALID,0.0169808,VALID,22.1243,VALID,34,VALID,1.18117,
2002-05-03, 01:44:00,VALID,913.544,VALID,0,VALID,85.3094,VALID,0,VALID,22.1182,VALID,46,VALID,0.91139,
2002-05-03, 01:45:00,VALID,913.53,VALID,0,VALID,85.3933,VALID,0.0169808,VALID,22.1058,VALID,60,VALID,1.23129,
2002-05-03, 01:46:00,VALID,913.527,VALID,0,VALID,85.4671,VALID,0.0509425,VALID,22.0858,VALID,60,VALID,1.60491,
2002-05-03, 01:47:00,VALID,913.512,VALID,0,VALID,85.298,VALID,0.0169808,VALID,22.0888,VALID,58,VALID,1.10769,
2002-05-03, 01:48:00,VALID,913.5,VALID,0,VALID,85.5358,VALID,0.0509425,VALID,22.0632,VALID,47,VALID,1.11006,
2002-05-03, 01:49:00,VALID,913.48,VALID,0,VALID,85.8002,VALID,0.0169808,VALID,22.0188,VALID,50,VALID,1.00549,
2002-05-03, 01:50:00,VALID,913.462,VALID,0,VALID,85.7596,VALID,0,VALID,21.9986,VALID,44,VALID,0.742188,
2002-05-03, 01:51:00,VALID,913.436,VALID,0,VALID,85.5586,VALID,0.0169808,VALID,22.0449,VALID,51,VALID,0.627804,
2002-05-03, 01:52:00,VALID,913.415,VALID,0,VALID,85.4506,VALID,0.0169808,VALID,22.0433,VALID,83,VALID,0.914063,
2002-05-03, 01:53:00,VALID,913.406,VALID,0,VALID,85.3196,VALID,0.0169808,VALID,22.0406,VALID,25,VALID,0.761613,
2002-05-03, 01:54:00,VALID,913.402,VALID,0,VALID,85.8842,VALID,0.0339617,VALID,21.9595,VALID,41,VALID,1.09145,
2002-05-03, 01:55:00,VALID,913.397,VALID,0,VALID,86.0012,VALID,0.0169808,VALID,21.9245,VALID,68,VALID,1.07475,
2002-05-03, 01:56:00,VALID,913.39,VALID,0,VALID,85.8168,VALID,0,VALID,21.9601,VALID,67,VALID,1.12007,
2002-05-03, 01:57:00,VALID,913.38,VALID,0,VALID,85.6833,VALID,0.0169808,VALID,21.9795,VALID,80,VALID,0.916735,
2002-05-03, 01:58:00,VALID,913.35,VALID,0,VALID,85.5014,VALID,0.0509425,VALID,22.0145,VALID,90,VALID,1.02545,
2002-05-03, 01:59:00,VALID,913.33,VALID,0,VALID,85.4073,VALID,0.0509425,VALID,22.0438,VALID,108,VALID,0.841216,
2002-05-03, 02:00:00,VALID,913.31,VALID,0,VALID,85.2891,VALID,0.0169808,VALID,22.0867,VALID,118,VALID,0.636259,
2002-05-03, 02:01:00,VALID,913.266,VALID,0,VALID,85.3221,VALID,0.0169808,VALID,22.0797,VALID,124,VALID,0.354096,
2002-05-03, 02:02:00,VALID,913.234,VALID,0,VALID,85.5192,VALID,0.0169808,VALID,22.0608,VALID,124,VALID,0.571533,
2002-05-03, 02:03:00,VALID,913.189,VALID,0,VALID,85.7659,VALID,0,VALID,22.0153,VALID,118,VALID,0.663261,
2002-05-03, 02:04:00,VALID,913.16,VALID,0,VALID,85.8447,VALID,0,VALID,21.9762,VALID,116,VALID,0.85558,
2002-05-03, 02:05:00,VALID,913.167,VALID,0,VALID,85.8982,VALID,0,VALID,21.9565,VALID,114,VALID,0.993454,
2002-05-03, 02:06:00,VALID,913.152,VALID,0,VALID,85.8371,VALID,0,VALID,21.9668,VALID,102,VALID,1.62086,
2002-05-03, 02:07:00,VALID,913.164,VALID,0,VALID,85.7761,VALID,-0.0169808,VALID,21.9824,VALID,126,VALID,1.17546,
2002-05-03, 02:08:00,VALID,913.154,VALID,0,VALID,85.9058,VALID,-0.0339617,VALID,21.9903,VALID,94,VALID,1.13055,
2002-05-03, 02:09:00,VALID,913.144,VALID,0,VALID,86.0202,VALID,-0.0169808,VALID,21.9617,VALID,115,VALID,1.11595,
2002-05-03, 02:10:00,VALID,913.112,VALID,0,VALID,86.0762,VALID,-0.0509425,VALID,21.9526,VALID,119,VALID,1.16942,
2002-05-03, 02:11:00,VALID,913.112,VALID,0,VALID,86.3076,VALID,-0.0339617,VALID,21.9359,VALID,131,VALID,0.685811,
2002-05-03, 02:12:00,VALID,913.102,VALID,0,VALID,86.5912,VALID,0,VALID,21.8938,VALID,141,VALID,0.683134,
2002-05-03, 02:13:00,VALID,913.074,VALID,0,VALID,86.9752,VALID,-0.0339617,VALID,21.8459,VALID,157,VALID,1.26816,
2002-05-03, 02:14:00,VALID,913.071,VALID,0,VALID,87.2588,VALID,-0.0679233,VALID,21.7907,VALID,130,VALID,0.742188,
2002-05-03, 02:15:00,VALID,913.044,VALID,0,VALID,87.7013,VALID,-0.0339617,VALID,21.7357,VALID,115,VALID,0.864583,
2002-05-03, 02:16:00,VALID,913.049,VALID,0,VALID,88.0154,VALID,-0.0339617,VALID,21.6775,VALID,111,VALID,1.17545,
2002-05-03, 02:17:00,VALID,913.031,VALID,0,VALID,87.7865,VALID,-0.0509425,VALID,21.6713,VALID,122,VALID,1.13682,
2002-05-03, 02:18:00,VALID,913.018,VALID,0,VALID,87.5894,VALID,-0.0169808,VALID,21.7134,VALID,142,VALID,0.806066,
2002-05-03, 02:19:00,VALID,913.011,VALID,0,VALID,87.5385,VALID,-0.0169808,VALID,21.729,VALID,151,VALID,1.02196,
2002-05-03, 02:20:00,VALID,913.008,VALID,0,VALID,87.5258,VALID,-0.0339617,VALID,21.7257,VALID,140,VALID,0.703125,
2002-05-03, 02:21:00,VALID,912.992,VALID,0,VALID,87.6555,VALID,-0.0509425,VALID,21.7031,VALID,139,VALID,0.807509,
2002-05-03, 02:22:00,VALID,912.981,VALID,0,VALID,87.7204,VALID,-0.0169808,VALID,21.6967,VALID,125,VALID,0.738393,
2002-05-03, 02:23:00,VALID,913,VALID,0,VALID,87.934,VALID,0.0169808,VALID,21.6538,VALID,134,VALID,0.634713,
2002-05-03, 02:24:00,VALID,912.999,VALID,0,VALID,88.0675,VALID,0.0509425,VALID,21.6401,VALID,151,VALID,0.871094,
2002-05-03, 02:25:00,VALID,912.984,VALID,0,VALID,88.1209,VALID,0.0849042,VALID,21.6269,VALID,162,VALID,0.934333,
2002-05-03, 02:26:00,VALID,912.999,VALID,0,VALID,88.065,VALID,0.0849042,VALID,21.6374,VALID,117,VALID,0.397705,
2002-05-03, 02:27:00,VALID,913.015,VALID,0,VALID,88.3384,VALID,0.101885,VALID,21.6078,VALID,100,VALID,0.900441,
2002-05-03, 02:28:00,VALID,913.017,VALID,0,VALID,88.3396,VALID,0.0679233,VALID,21.6051,VALID,131,VALID,1.16786,
2002-05-03, 02:29:00,VALID,913.016,VALID,0,VALID,88.1158,VALID,0.101885,VALID,21.6433,VALID,167,VALID,0.476563,
2002-05-03, 02:30:00,VALID,913.045,VALID,0,VALID,87.9493,VALID,0.0849042,VALID,21.663,VALID,148,VALID,0.393153,
2002-05-03, 02:31:00,VALID,913.046,VALID,0,VALID,87.8717,VALID,0.101885,VALID,21.6692,VALID,78,VALID,0.667019,
2002-05-03, 02:32:00,VALID,913.082,VALID,0,VALID,88.1985,VALID,0.0679233,VALID,21.6175,VALID,101,VALID,0.342105,
2002-05-03, 02:33:00,VALID,913.093,VALID,0,VALID,88.2939,VALID,0.0679233,VALID,21.6142,VALID,139,VALID,0.50185,
2002-05-03, 02:34:00,VALID,913.11,VALID,0,VALID,88.2201,VALID,0.0849042,VALID,21.6239,VALID,101,VALID,0.430357,
2002-05-03, 02:35:00,VALID,913.129,VALID,0,VALID,87.8742,VALID,0.0849042,VALID,21.6562,VALID,97,VALID,0.621833,
2002-05-03, 02:36:00,VALID,913.101,VALID,0,VALID,87.4444,VALID,0.0849042,VALID,21.7373,VALID,94,VALID,0.515165,
2002-05-03, 02:37:00,VALID,913.105,VALID,0,VALID,87.2359,VALID,0.0849042,VALID,21.7955,VALID,43,VALID,1.20122,
2002-05-03, 02:38:00,VALID,913.081,VALID,0,VALID,87.2626,VALID,0.0169808,VALID,21.7963,VALID,31,VALID,0.629883,
2002-05-03, 02:39:00,VALID,913.088,VALID,0,VALID,87.4571,VALID,-0.0339617,VALID,21.7586,VALID,24,VALID,0.114383,
2002-05-03, 02:40:00,VALID,913.076,VALID,0,VALID,87.5881,VALID,0,VALID,21.7357,VALID,266,VALID,0.508482,
2002-05-03, 02:41:00,VALID,913.052,VALID,0,VALID,87.6809,VALID,-0.0169808,VALID,21.7158,VALID,223,VALID,0.770904,
2002-05-03, 02:42:00,VALID,913.059,VALID,0,VALID,87.714,VALID,0,VALID,21.722,VALID,173,VALID,0.964844,
2002-05-03, 02:43:00,VALID,913.063,VALID,0,VALID,87.8132,VALID,-0.0169808,VALID,21.7328,VALID,184,VALID,0.630912,
2002-05-03, 02:44:00,VALID,913.07,VALID,0,VALID,87.9302,VALID,-0.0169808,VALID,21.7128,VALID,185,VALID,0.585115,
2002-05-03, 02:45:00,VALID,913.067,VALID,0,VALID,88.0662,VALID,-0.0169808,VALID,21.6932,VALID,166,VALID,0.748561,
2002-05-03, 02:46:00,VALID,913.052,VALID,0,VALID,88.1387,VALID,0,VALID,21.6738,VALID,222,VALID,0.210938,
2002-05-03, 02:47:00,VALID,913.054,VALID,0,VALID,88.2481,VALID,0,VALID,21.6517,VALID,229,VALID,0.446157,
2002-05-03, 02:48:00,VALID,913.043,VALID,0,VALID,88.2786,VALID,-0.0169808,VALID,21.6385,VALID,225,VALID,0.2608,
2002-05-03, 02:49:00,VALID,913.037,VALID,0,VALID,88.3854,VALID,-0.0169808,VALID,21.6126,VALID,228,VALID,0.179899,
2002-05-03, 02:50:00,VALID,913.038,VALID,0,VALID,88.5291,VALID,-0.0339617,VALID,21.5835,VALID,230,VALID,0.00195313,
2002-05-03, 02:51:00,VALID,913.035,VALID,0,VALID,88.6092,VALID,-0.0339617,VALID,21.5711,VALID,187,VALID,0.624599,
2002-05-03, 02:52:00,VALID,913.011,VALID,0,VALID,88.7542,VALID,0,VALID,21.5286,VALID,171,VALID,0.601786,
2002-05-03, 02:53:00,VALID,913.031,VALID,0,VALID,88.9208,VALID,0,VALID,21.513,VALID,168,VALID,0.496199,
2002-05-03, 02:54:00,VALID,913.021,VALID,0,VALID,89.0835,VALID,0,VALID,21.4941,VALID,190,VALID,0.43773,
2002-05-03, 02:55:00,VALID,912.994,VALID,0,VALID,89.053,VALID,-0.0509425,VALID,21.5065,VALID,203,VALID,0.597762,
2002-05-03, 02:56:00,VALID,913,VALID,0,VALID,88.8623,VALID,-0.0509425,VALID,21.5162,VALID,186,VALID,0.153988,
2002-05-03, 02:57:00,VALID,912.99,VALID,0,VALID,88.9271,VALID,-0.0339617,VALID,21.4841,VALID,171,VALID,0.398849,
2002-05-03, 02:58:00,VALID,912.966,VALID,0,VALID,89.0301,VALID,-0.0169808,VALID,21.4578,VALID,169,VALID,0.102902,
2002-05-03, 02:59:00,VALID,912.954,VALID,0,VALID,88.9894,VALID,-0.0169808,VALID,21.4424,VALID,169,VALID,0.11022,
2002-05-03, 03:00:00,VALID,912.952,VALID,0,VALID,89.0861,VALID,-0.0509425,VALID,21.3743,VALID,169,VALID,0,
2002-05-03, 03:01:00,VALID,912.931,VALID,0,VALID,89.5909,VALID,-0.0169808,VALID,21.2838,VALID,194,VALID,0.282728,
2002-05-03, 03:02:00,VALID,912.926,VALID,0,VALID,89.9635,VALID,-0.0679233,VALID,21.1965,VALID,276,VALID,0.324219,
2002-05-03, 03:03:00,VALID,912.939,VALID,0,VALID,90.3068,VALID,-0.0679233,VALID,21.1612,VALID,276,VALID,0,
2002-05-03, 03:04:00,VALID,912.96,VALID,0,VALID,90.3806,VALID,-0.0339617,VALID,21.1122,VALID,275,VALID,0.0350446,
2002-05-03, 03:05:00,VALID,912.982,VALID,0,VALID,90.6527,VALID,-0.0169808,VALID,21.0732,VALID,262,VALID,0.155617,
2002-05-03, 03:06:00,VALID,912.99,VALID,0,VALID,91.0126,VALID,0,VALID,21.1092,VALID,237,VALID,0.411765,
2002-05-03, 03:07:00,VALID,912.982,VALID,0,VALID,90.406,VALID,-0.0339617,VALID,21.1448,VALID,236,VALID,0.187922,
2002-05-03, 03:08:00,VALID,912.968,VALID,0,VALID,89.9342,VALID,-0.0509425,VALID,21.0484,VALID,236,VALID,0.0795641,
2002-05-03, 03:09:00,VALID,912.954,VALID,0,VALID,90.7099,VALID,-0.0509425,VALID,20.9603,VALID,236,VALID,0.00925164,
2002-05-03, 03:10:00,VALID,912.915,VALID,0,VALID,91.1232,VALID,-0.0339617,VALID,20.9318,VALID,239,VALID,0.340402,
2002-05-03, 03:11:00,VALID,912.893,VALID,0,VALID,91.0838,VALID,-0.0509425,VALID,20.8634,VALID,282,VALID,0.443623,
2002-05-03, 03:12:00,VALID,912.874,VALID,0,VALID,91.6356,VALID,-0.0849042,VALID,20.8224,VALID,320,VALID,0.646369,
2002-05-03, 03:13:00,VALID,912.845,VALID,0,VALID,92.3236,VALID,-0.0509425,VALID,20.9024,VALID,308,VALID,0.560177,
2002-05-03, 03:14:00,VALID,912.824,VALID,0,VALID,92.0095,VALID,-0.0339617,VALID,21.0091,VALID,278,VALID,0.532471,
2002-05-03, 03:15:00,VALID,912.815,VALID,0,VALID,91.4563,VALID,-0.0339617,VALID,21.1127,VALID,282,VALID,0.719151,
2002-05-03, 03:16:00,VALID,912.818,VALID,0,VALID,90.5929,VALID,-0.0679233,VALID,21.2065,VALID,205,VALID,0.581027,
2002-05-03, 03:17:00,VALID,912.807,VALID,0,VALID,90.4238,VALID,-0.0509425,VALID,21.2,VALID,223,VALID,0.397804,
2002-05-03, 03:18:00,VALID,912.792,VALID,0,VALID,90.378,VALID,-0.0849042,VALID,21.2425,VALID,233,VALID,0.578125,
2002-05-03, 03:19:00,VALID,912.776,VALID,0,VALID,90.2509,VALID,-0.0849042,VALID,21.2875,VALID,251,VALID,0.345228,
2002-05-03, 03:20:00,VALID,912.775,VALID,0,VALID,90.1034,VALID,-0.0169808,VALID,21.2803,VALID,254,VALID,0.0123355,
2002-05-03, 03:21:00,VALID,912.783,VALID,0,VALID,90.0398,VALID,-0.0849042,VALID,21.2676,VALID,254,VALID,0,
2002-05-03, 03:22:00,VALID,912.786,VALID,0,VALID,90.1301,VALID,0,VALID,21.2582,VALID,248,VALID,0.120536,
2002-05-03, 03:23:00,VALID,912.786,VALID,0,VALID,90.1072,VALID,-0.0169808,VALID,21.2714,VALID,178,VALID,0.215583,
2002-05-03, 03:24:00,VALID,912.789,VALID,0,VALID,89.7829,VALID,-0.0679233,VALID,21.2622,VALID,186,VALID,0.0560662,
2002-05-03, 03:25:00,VALID,912.811,VALID,0,VALID,89.9393,VALID,-0.0849042,VALID,21.2102,VALID,154,VALID,0.317779,
2002-05-03, 03:26:00,VALID,912.799,VALID,0,VALID,90.3984,VALID,-0.0679233,VALID,21.1747,VALID,135,VALID,0.737305,
2002-05-03, 03:27:00,VALID,912.798,VALID,0,VALID,90.3666,VALID,-0.0509425,VALID,21.1908,VALID,153,VALID,1.58454,
2002-05-03, 03:28:00,VALID,912.769,VALID,0,VALID,89.5489,VALID,-0.0509425,VALID,21.3166,VALID,123,VALID,0.943973,
2002-05-03, 03:29:00,VALID,912.766,VALID,0,VALID,88.8,VALID,-0.0679233,VALID,21.4303,VALID,91,VALID,0.479307,
2002-05-03, 03:30:00,VALID,912.76,VALID,0,VALID,88.7644,VALID,-0.101885,VALID,21.4718,VALID,125,VALID,0.578125,
2002-05-03, 03:31:00,VALID,912.758,VALID,0,VALID,88.5927,VALID,-0.0679233,VALID,21.5208,VALID,139,VALID,1.27344,
2002-05-03, 03:32:00,VALID,912.76,VALID,0,VALID,88.0751,VALID,-0.0339617,VALID,21.6108,VALID,133,VALID,0.73787,
2002-05-03, 03:33:00,VALID,912.758,VALID,0,VALID,87.8132,VALID,-0.0339617,VALID,21.6722,VALID,161,VALID,0.82977,